Regional Weather Roundup
Issued by NWS Grand Forks, ND

Home | Current Version | Previous Version | Text Only | Print | Product List | Glossary Off
Versions: 1 2 3 4 5 6 7 8 9 10 11 12 13 14 15 16 17 18 19 20 21 22 23 24 25 26 27 28 29 30 31 32 33 34 35 36 37 38 39 40 41 42 43 44 45 46 47 48 49 50

000
ASUS43 KFGF 220631
RWRFGF
PRAIRIE TO PINES  WEATHER ROUNDUP
NATIONAL WEATHER SERVICE EASTERN NORTH DAKOTA/GRAND FORKS ND
100 AM CDT SUN APR 22 2018

 **SATELLITE DATA USED TO AUGMENT SKY COVER AT AUTOMATED STATIONS**
 *****  WEATHER ACROSS EASTERN NORTH DAKOTA  *****

CITY           SKY/WX    TMP DP  RH WIND       PRES   REMARKS
GRAND FORKS    FAIR      43  42  97 S14       30.22S
6HR MIN TEMP:  43; 6HR MAX TEMP:  58;

GRAND FRKS AFB FAIR      43  40  88 S9        30.22R
GRAND FRKS NWS   N/A     44  41  89 S9        30.21R
DEVILS LAKE    FAIR      43  34  70 S13       30.19R
6HR MIN TEMP:  43; 6HR MAX TEMP:  58;

FARGO          FAIR      46  39  76 S13       30.27S
WAHPETON ARPT  FAIR      37  34  87 S6        30.30S
$$

 ***** WEATHER ACROSS CENTRAL AND WESTERN NORTH DAKOTA  *****

CITY           SKY/WX    TMP DP  RH WIND       PRES   REMARKS
BISMARCK       FAIR      43  35  73 S12       30.19S
6HR MIN TEMP:  43; 6HR MAX TEMP:  59;

MINOT          FAIR      47  37  68 S23G32    30.05F
6HR MIN TEMP:  47; 6HR MAX TEMP:  63;

JAMESTOWN      FAIR      40  34  79 S10       30.21F
6HR MIN TEMP:  39; 6HR MAX TEMP:  58;

MINOT AFB      FAIR      46  37  72 S23G30    30.03F
GARRISON         N/A     41  36  82 S12       30.10F
WILLISTON      FAIR      52  39  61 S7        30.03R
6HR MIN TEMP:  52; 6HR MAX TEMP:  68;

DICKINSON      FAIR      41  36  82 S22       30.04F
6HR MIN TEMP:  41; 6HR MAX TEMP:  58;

HETTINGER      FAIR      39  35  86 SE10      30.12F
6HR MIN TEMP:  39; 6HR MAX TEMP:  55;

$$

 *****  OTHER AIRPORT OBSERVATIONS IN OUR AREA  *****

CITY           SKY/WX    TMP DP  RH WIND       PRES   REMARKS
WALHALLA       FAIR      50  37  62 SW12G23   30.16F
GRAFTON AIRPOR NOT AVBL
VALLEY CITY AR NOT AVBL
CANDO          FAIR      39  39 100 S12       30.17F
CAVALIER APRT    N/A     45  41  87 S9        30.18S
GWINNER          N/A     37  34  87 S8        30.27S
SHEYENNE NWR     N/A     40  40 100 S6        29.95S
ROLLA          FAIR      41  39  93 S16       30.11F
 ***** THE ABOVE OBSERVATIONS ARE NON NWS ARE NOT QUALITY
       CONTROLLED AND MAY MIS-REPORT RAIN FOR SNOW...
$$

  *****  WEATHER ACROSS NORTHERN MINNESOTA  *****

CITY           SKY/WX    TMP DP  RH WIND       PRES   REMARKS
FLAG ISLAND    FAIR      34  28  80 S5        30.24S
WARROAD        FAIR      39  36  87 S5        30.24S
ROSEAU         FAIR      39  36  87 S5        30.24R
HALLOCK        FAIR      45  41  87 S15       30.19F
THF RVR FALLS  FAIR      44  37  76 S10       30.26S
6HR MIN TEMP:  43; 6HR MAX TEMP:  57;

BAUDETTE       FAIR      40  32  73 CALM      30.25F
6HR MIN TEMP:  38; 6HR MAX TEMP:  58;

WASKISH        FAIR      45  28  53 S6        30.27S
CROOKSTON      FAIR      46  39  76 S17       30.26R
STEPHEN NDAWN    N/A     46  39  76 S14         N/A
GREENBUSH NDAW   N/A     43  37  81 S8          N/A
$$
  *****  WEATHER ACROSS CENTRAL AND WEST MINNESOTA  *****

CITY           SKY/WX    TMP DP  RH WIND       PRES   REMARKS
FOSSTON        FAIR      36  30  80 S8        30.28S
BEMIDJI        FAIR      41  30  66 S7        30.28S
6HR MIN TEMP:  35; 6HR MAX TEMP:  58;

PARK RAPIDS    FAIR      42  31  64 SE5       30.28F
6HR MIN TEMP:  41; 6HR MAX TEMP:  58;

ELBOW LAKE     FAIR      33  31  94 S8        30.32R
WADENA         FAIR      36  30  80 CALM      30.30S
DETROIT LAKES  FAIR      39  34  81 CALM      30.30R
MOORHEAD       FAIR      45  37  76 S8        30.29S
FERGUS FALLS   FAIR      37  34  87 S7        30.30R
MORRIS MN      FAIR      37  36  93 S6        30.32R
STAPLES        FAIR      34  28  80 CALM      30.31S
$$
  *****  WEATHER ELSEWHERE ACROSS MINNESOTA  *****

CITY           SKY/WX    TMP DP  RH WIND       PRES   REMARKS
DULUTH         FAIR      40  19  43 SE3       30.33S
6HR MIN TEMP:  33; 6HR MAX TEMP:  56; 6HR PCP: TRACE;

INTRNTL FALLS  FAIR      33  25  72 SE3       30.28S
6HR MIN TEMP:  32; 6HR MAX TEMP:  60;

ELY            FAIR      30  19  64 CALM      30.33S
CLOQUET        FAIR      28  19  69 CALM      30.32F
WHEATON        FAIR      41  34  75 S9        30.33R
BRAINERD       FAIR      31  25  78 CALM      30.31F
6HR MIN TEMP:  31; 6HR MAX TEMP:  56;

HIBBING        FAIR      28  23  81 CALM      30.32S
6HR MIN TEMP:  28; 6HR MAX TEMP:  56;

ALEXANDRIA     FAIR      39  32  76 S5        30.32R
6HR MIN TEMP:  39; 6HR MAX TEMP:  56;

SAINT CLOUD    FAIR      33  30  88 CALM      30.33S
6HR MIN TEMP:  33; 6HR MAX TEMP:  56;

MINNEAPOLIS    FAIR      46  33  60 SE3       30.35S
6HR MIN TEMP:  46; 6HR MAX TEMP:  58;

$$

  *****  WEATHER ACROSS SOUTH DAKOTA  *****

CITY           SKY/WX    TMP DP  RH WIND       PRES   REMARKS
SIOUX FALLS    CLOUDY    40  33  76 NE7       30.29S
6HR MIN TEMP:  39; 6HR MAX TEMP:  49;

BROOKINGS      FAIR      36  30  79 SE10      30.29F
WATERTOWN      FAIR      37  29  72 S5        30.29S
6HR MIN TEMP:  36; 6HR MAX TEMP:  51;

HURON            N/A     38  32  79 SE8       30.28S
6HR MIN TEMP:  37; 6HR MAX TEMP:  52;

SISSETON         N/A     36  32  85 S6        30.29R
ABERDEEN       FAIR      32  30  92 SE8       30.28S WCI  25
6HR MIN TEMP:  32; 6HR MAX TEMP:  57;

MITCHELL       CLOUDY    39  36  89 E3        30.28F
PIERRE         FAIR      34  33  96 SE7       30.22F
6HR MIN TEMP:  34; 6HR MAX TEMP:  49;

MOBRIDGE       FAIR      38  34  85 VRB3      30.19S
RAPID CITY     FAIR      38  34  85 SE12      30.13F
6HR MIN TEMP:  38; 6HR MAX TEMP:  50;

$$

  *****  SOME WEATHER IN NEARBY STATES *****

CITY           SKY/WX    TMP DP  RH WIND       PRES   REMARKS
GLASGOW MT     FAIR      52  25  35 NW17G28   30.04R
6HR MIN TEMP:  52; 6HR MAX TEMP:  75;

GREAT FALLS MT FAIR      42  24  49 SE8       30.12S
6HR MIN TEMP:  38; 6HR MAX TEMP:  60;

CHEYENNE WY    FAIR      34  33  96 SW13      30.14S WCI  25
6HR MIN TEMP:  34; 6HR MAX TEMP:  39;

SCOTTSBLUFF NE FAIR      35  35 100 SE9       30.18S
6HR MIN TEMP:  34; 6HR MAX TEMP:  47;

OMAHA NE       CLOUDY    52  27  38 E12       30.24S
6HR MIN TEMP:  51; 6HR MAX TEMP:  54;

DES MOINES IA  CLOUDY    50  32  50 E15       30.28S
6HR MIN TEMP:  50; 6HR MAX TEMP:  58;

DAVENPORT IA   MOCLDY    48  31  51 E10       30.32F
6HR MIN TEMP:  47; 6HR MAX TEMP:  55;

CHICAGO IL     CLOUDY    44  21  40 CALM      30.37R
6HR MIN TEMP:  44; 6HR MAX TEMP:  49;

EAU CLAIRE WI  FAIR      36  29  75 SW3       30.35S
6HR MIN TEMP:  34; 6HR MAX TEMP:  57;

LA CROSSE WI   FAIR      42  32  67 CALM      30.35F
6HR MIN TEMP:  39; 6HR MAX TEMP:  56;

$$

  *****  SOME NATIONAL WEATHER *****

CITY           SKY/WX    TMP DP  RH WIND       PRES   REMARKS
LA GUARDIA NY  MOCLDY    51  19  28 N10       30.36R
6HR MIN TEMP:  51; 6HR MAX TEMP:  59;

RALEIGH NC     FAIR      52  40  63 S5        30.37R
6HR MIN TEMP:  52; 6HR MAX TEMP:  62;

ATLANTA GA     MOCLDY    62  48  60 E6        30.24F
6HR MIN TEMP:  62; 6HR MAX TEMP:  68;

NEW ORLEANS LA CLOUDY    70  68  93 E10       30.02F
6HR MIN TEMP:  70; 6HR MAX TEMP:  73;

OKLAHOMA CITY  CLOUDY    46  44  93 N16       30.10S
6HR MIN TEMP:  46; 6HR MAX TEMP:  48; 6HR PCP:  0.03;

ALBUQUERQUE NM FAIR      54  25  32 NE3       30.15S
6HR MIN TEMP:  52; 6HR MAX TEMP:  68;

SALT LAKE CITY FAIR      55  29  36 SE8       30.14S
6HR MIN TEMP:  55; 6HR MAX TEMP:  69;

LOS ANGELES CA MOCLDY



USA.gov is the U.S. government's official web portal to all federal, state and local government web resources and services.